Weather in Al-Kuwait

Kuwait     29°21′55″N   47°58′23″E
temp.,
°C
wind,
m/s
gust,
m/s
humid.,
%
clouds,
%
prec.,
mm/h
press.,
hPa
HPBL,
m
4 december, sat
sat400:00+16nw69300 0.0 1022446
03:00+15nw69311 0.0 1021380
06:00+14nw68330 0.0 1022359
09:00+15nw673196 0.0 1023399
12:00+18nw5621100 0.0 1021683
15:00+21nw4516100 0.0 1019872
18:00+20nnw551853 0.0 1020700
21:00+19nw4522100 0.0 1020334
5 december, sun
sun500:00+18nw3423100 0.0 1020248
03:00+17wnw332349 0.0 1019201
06:00+16wnw2224100 0.0 1019108
09:00+17w11205 0.0 1020209
12:00+20ene11135 0.0 1018378
15:00+21ese331716 0.0 1017400
18:00+20ese453097 0.0 1017276
21:00+19se3536100 0.0 1018246
6 december, mon
mon600:00+18sse7113862 0.0 1015278
03:00+18s7122591 0.0 1014316
06:00+17s613194 0.0 1015346
09:00+19ssw462645 0.0 1016284
12:00+23nw58255 0.0 1015545
15:00+25nnw79203 0.0 10151064
18:00+23nnw7102697 0.0 1017709
21:00+21nw6103599 0.0 1018389
7 december, tue
tue700:00+19nw694976 0.0 1019328
03:00+19nw575497 0.0 1019304
06:00+18nw46551 0.0 1020293
09:00+19nw56400 0.0 1022288
12:00+22nnw45300 0.0 1021490
15:00+23nnw34252 0.0 1019685
18:00+23nnw2329100 0.0 101990
21:00+22nw3430100 0.0 102096
8 december, wed
wed800:00+21nw3432100 0.0 1019103
03:00+20nw2332100 0.0 101970
06:00+19wnw223222 0.0 102026
09:00+20sw112813 0.0 1021112
12:00+23ese232497 0.0 1019486
15:00+23ese552965 0.0 1017455
18:00+22se684417 0.0 1018278
21:00+20sse61052100 0.0 1018276